This is the latest recevied weather packets stored in our database for station/object KF0JJO. If no packets are shown the sender has not sent any weather packets the latest 1 day(s).
| Time | Temp. | Humidity | Pressure | Rain* | Wind** | Luminosity | Snow |
|---|---|---|---|---|---|---|---|
| 1778021592 | 10.56° C | 33% | 1041.8 hPa | 0 mm | 0 m/s | 101 W/m² | - |
| 1778021287 | 10.56° C | 33% | 1041.5 hPa | 0 mm | 0.45 m/s, 26° | 99 W/m² | - |
| 1778020985 | 11.67° C | 33% | 1041.7 hPa | 0 mm | 0 m/s | 148 W/m² | - |
| 1778020682 | 11.11° C | 35% | 1041.6 hPa | 0 mm | 0 m/s | 306 W/m² | - |
| 1778020379 | 11.67° C | 33% | 1041.8 hPa | 0 mm | 0.45 m/s, 34° | 112 W/m² | - |
| 1778020074 | 11.67° C | 33% | 1041.6 hPa | 0 mm | 0.45 m/s, 25° | 194 W/m² | - |
| 1778019771 | 11.11° C | 34% | 1041.6 hPa | 0 mm | 0.45 m/s, 34° | 572 W/m² | - |
| 1778019468 | 11.11° C | 34% | 1042 hPa | 0 mm | 0 m/s | 316 W/m² | - |
| 1778019165 | 11.11° C | 34% | 1041.8 hPa | 0 mm | 0.45 m/s, 36° | 169 W/m² | - |
| 1778018861 | 11.11° C | 34% | 1041.8 hPa | 0 mm | 0 m/s | 363 W/m² | - |
| 1778018559 | 10.56° C | 36% | 1041.8 hPa | 0 mm | 0 m/s | 241 W/m² | - |
| 1778018257 | 10.56° C | 34% | 1042 hPa | 0 mm | 0 m/s | 258 W/m² | - |
| 1778017955 | 10.56° C | 37% | 1042.1 hPa | 0 mm | 0 m/s | 236 W/m² | - |
| 1778017652 | 10.56° C | 35% | 1042 hPa | 0 mm | 0 m/s | 153 W/m² | - |
| 1778017350 | 10.56° C | 34% | 1042 hPa | 0 mm | 0.45 m/s, 37° | 143 W/m² | - |
| 1778017047 | 10.56° C | 35% | 1041.8 hPa | 0 mm | 0.45 m/s, 42° | 150 W/m² | - |
| 1778016744 | 10.56° C | 33% | 1042 hPa | 0 mm | 0.45 m/s, 32° | 203 W/m² | - |
| 1778016440 | 10.56° C | 34% | 1042 hPa | 0 mm | 0.45 m/s, 28° | 199 W/m² | - |
| 1778016137 | 10.56° C | 34% | 1041.9 hPa | 0 mm | 0.45 m/s, 37° | 185 W/m² | - |
| 1778015834 | 10.56° C | 35% | 1041.8 hPa | 0 mm | 0 m/s | 215 W/m² | - |
| 1778015531 | 10.56° C | 35% | 1042.1 hPa | 0 mm | 0 m/s | 232 W/m² | - |
| 1778015228 | 10.56° C | 34% | 1042.2 hPa | 0 mm | 0.45 m/s, 32° | 174 W/m² | - |
| 1778014924 | 10.56° C | 34% | 1042 hPa | 0 mm | 0.89 m/s, 34° | 211 W/m² | - |
| 1778014622 | 10.56° C | 34% | 1042.1 hPa | 0 mm | 0 m/s | 207 W/m² | - |
| 1778014320 | 10.56° C | 33% | 1042.3 hPa | 0 mm | 0.89 m/s, 37° | 312 W/m² | - |
* Rain latest hour (hover to see other rain measurements)
** Current wind speed in m/s (hover to see current wind gust speed)